Weather in Umm al-Quwain

United Arab Emirates     25°33′11″N   55°33′03″E
temp.,
°C
wind,
m/s
gust,
m/s
humid.,
%
clouds,
%
prec.,
mm/h
press.,
hPa
HPBL,
m
15 august, mon
mon1501:00+33w12674 0.0 99773
04:00+33w226794 0.0 99728
07:00+33ssw336289 0.0 998100
10:00+35wsw55535 0.0 999330
13:00+35w665321 0.0 998318
16:00+35nw565997 0.0 998347
19:00+34w336134 0.0 998133
22:00+33wsw336394 0.0 999105
16 august, tue
tue1601:00+33ssw116598 0.0 99818
04:00+33ese225672 0.0 99715
07:00+34se5642100 0.0 99981
10:00+38s223619 0.0 999332
13:00+35nw5547100 0.0 998226
16:00+34nnw445728 0.0 997270
19:00+34wnw116250 0.0 99898
22:00+33wsw3363100 0.0 99978
17 august, wed
wed1701:00+33nw1166100 0.0 99816
04:00+32ese116279 0.0 99719
07:00+32se4560100 0.0 998189
10:00+36se1251100 0.0 998358
13:00+35nw5454100 0.0 997358
16:00+34nnw5462100 0.0 996428
19:00+33ne3361100 0.0 996174
22:00+34ne2255100 0.0 99787
18 august, thu
thu1801:00+34nne4455100 0.0 99657
04:00+32ene4573100 0.0 996256
07:00+33se3457100 0.0 998166
10:00+36ssw4543100 0.0 998455
13:00+36nw5547100 0.0 996500
16:00+35n665485 0.0 994236
19:00+34ne4555100 0.0 995158
22:00+34nne3358100 0.0 99573
19 august, fri
fri1901:00+34n4455100 0.0 99553
04:00+34se235510 0.0 99631
07:00+34sse58475 0.0 997231
10:00+36ssw67445 0.0 998395
13:00+36w55516 0.0 997842
16:00+35wnw776281 0.0 996218
19:00+34ne446376 0.0 997150
22:00+35ese7105446 0.0 998207